Regional Weather Roundup
Issued by NWS

Home | Current Version | Previous Version | Text Only | Print | Product List | Glossary Off
Versions: 1 2 3 4 5 6 7 8 9 10 11 12 13 14 15 16 17 18 19 20 21 22 23 24 25 26 27 28 29 30 31 32 33 34 35 36 37 38 39 40 41 42 43 44 45 46 47 48 49 50

000
ASUS43 KOAX 291202
RWRNE

WEATHER ROUNDUP FOR NEBRASKA
NATIONAL WEATHER SERVICE OMAHA NE
700 AM CDT WED MAR 29 2017

NOTES: SATELLITE DATA IS BEING USED TO AUGMENT CLOUD COVER ABOVE
       12000 FEET.
       "FAIR" INDICATES FEW OR NO CLOUDS BELOW 12,000 FEET WITH NO
       SIGNIFICANT WEATHER AND/OR OBSTRUCTIONS TO VISIBILITY.

  * THESE STATIONS DO NOT REPORT WEATHER SUCH AS RAIN...SNOW OR FOG.

NEZ001>004-019>022-054>056-291300-
NEBRASKA PANHANDLE

CITY           SKY/WX    TMP DP  RH WIND       PRES   REMARKS
SCOTTSBLUFF    CLOUDY    39  37  92 NW6       30.11R WCI  35
6HR MIN TEMP:  39; 6HR MAX TEMP:  40;

ALLIANCE       CLOUDY    38  37  97 N6        30.10S WCI  33
6HR MIN TEMP:  38; 6HR MAX TEMP:  38;

CHADRON        CLOUDY    40  38  93 S3        30.12F
6HR MIN TEMP:  40; 6HR MAX TEMP:  41;

KIMBALL        CLOUDY    37  37 100 N9        30.08S WCI  30
SIDNEY         CLOUDY    37  35  92 N9        30.08S WCI  30
6HR MIN TEMP:  36; 6HR MAX TEMP:  38; 6HR PCP: TRACE;

$$

NEZ057>060-069>072-079>082-291300-
SOUTHWEST NEBRASKA

CITY           SKY/WX    TMP DP  RH WIND       PRES   REMARKS
NORTH PLATTE   CLOUDY    43  40  89 N7        30.04F
6HR MIN TEMP:  43; 6HR MAX TEMP:  44; 6HR PCP:  0.06;

IMPERIAL       CLOUDY    41  39  93 N16       30.03S FOG
6HR MIN TEMP:  40; 6HR MAX TEMP:  42; 6HR PCP:  0.02;

LEXINGTON      CLOUDY    43  41  93 NE13      30.00F
MCCOOK         CLOUDY    43  42  97 N16       29.98F
6HR MIN TEMP:  42; 6HR MAX TEMP:  43; 6HR PCP:  0.05;

OGALLALA       CLOUDY    42  40  92 N10       30.07S
$$

NEZ005>010-023>029-035>040-094-291300-
NORTH CENTRAL NEBRASKA

CITY           SKY/WX    TMP DP  RH WIND       PRES   REMARKS
VALENTINE      CLOUDY    42  39  89 N3        30.12F
6HR MIN TEMP:  42; 6HR MAX TEMP:  42; 6HR PCP:  0.05;

AINSWORTH      CLOUDY    41  41 100 N7        30.10S FOG
BROKEN BOW     LGT RAIN  44  40  85 N12       30.03F
6HR MIN TEMP:  44; 6HR MAX TEMP:  44; 6HR PCP:  0.07;

O`NEILL        CLOUDY    44  44  99 N9        30.09F FOG
ORD            CLOUDY    44  41  89 NE9       30.04F FOG
6HR MIN TEMP:  44; 6HR MAX TEMP:  45; 6HR PCP:  0.05;

$$

NEZ041-046>049-061>064-073>077-083>087-291300-
SOUTH CENTRAL NEBRASKA

CITY           SKY/WX    TMP DP  RH WIND       PRES   REMARKS
GRAND ISLAND   LGT RAIN  43  43 100 NE16      30.01F FOG
6HR MIN TEMP:  43; 6HR MAX TEMP:  43; 6HR PCP:  0.04;

AURORA         DRIZZLE   43  43 100 NE16      30.00F
HASTINGS       LGT RAIN  44  42  93 NE18      29.97F FOG
6HR MIN TEMP:  43; 6HR MAX TEMP:  44; 6HR PCP:  0.05;

HEBRON         LGT RAIN  45  45  98 NE16      29.93F
HOLDREGE       LGT RAIN  42  41  95 N16       29.98S
KEARNEY *      CLOUDY    43  39  87 N17       29.99F
YORK           LGT RAIN  45  45 100 NE14G20   30.00S
$$

NEZ011>018-030>034-042>045-291300-
NORTHEAST NEBRASKA

CITY           SKY/WX    TMP DP  RH WIND       PRES   REMARKS
NORFOLK        LGT RAIN  44  41  89 NE9       30.06S FOG
6HR MIN TEMP:  44; 6HR MAX TEMP:  46; 6HR PCP:  0.07;

ALBION         DRIZZLE   45  42  91 NE8       30.06S
FREMONT        LGT RAIN  45  45  98 NE6       30.03S
TEKAMAH        LGT RAIN  46  43  89 NE12      30.05S
6HR MIN TEMP:  45; 6HR MAX TEMP:  47; 6HR PCP:  0.12;

WAYNE          LGT RAIN  44  43  99 NE9       30.08F
$$

NEZ050>053-065>068-078-088>093-291300-
SOUTHEAST NEBRASKA

CITY           SKY/WX    TMP DP  RH WIND       PRES   REMARKS
LINCOLN        LGT RAIN  46  44  93 NE13      30.00R
6HR MIN TEMP:  46; 6HR MAX TEMP:  46; 6HR PCP:  0.27;

OMAHA EPPLEY   LGT RAIN  47  42  83 E14       30.02F
6HR MIN TEMP:  47; 6HR MAX TEMP:  49; 6HR PCP:  0.38;

BEATRICE       LGT RAIN  46  46  98 NE13G21   29.93F
FALLS CITY     LGT RAIN  48  46  93 E16       29.92S
6HR MIN TEMP:  47; 6HR MAX TEMP:  51; 6HR PCP:  0.70;

NEBRASKA CITY  LGT RAIN  46  46 100 E15G23    29.96R
PLATTSMOUTH    LGT RAIN  46  43  91 NE13      29.99R
$$

NEZ044-045-051>053-067-291300-
OMAHA AREA

CITY           SKY/WX    TMP DP  RH WIND       PRES   REMARKS
OMAHA EPPLEY   LGT RAIN  47  42  83 E14       30.02F
6HR MIN TEMP:  47; 6HR MAX TEMP:  49; 6HR PCP:  0.38;

FREMONT        LGT RAIN  45  45  98 NE6       30.03S
MILLARD        LGT RAIN  48  46  91 NE7       30.01S
OFFUTT AFB     LGT RAIN  46  44  92 NE13G21   29.99F
PLATTSMOUTH    LGT RAIN  46  43  91 NE13      29.99R
WAHOO          LGT RAIN  46  44  94 NE10      30.02R
$$



USA.gov is the U.S. government's official web portal to all federal, state and local government web resources and services.